Regional Weather Roundup
Issued by NWS

Home | Current Version | Previous Version | Graphics & Text | Print | Product List | Glossary On
Versions: 1 2 3 4 5 6 7 8 9 10 11 12 13 14 15 16 17 18 19 20 21 22 23 24 25 26 27 28 29 30 31 32 33 34 35 36 37 38 39 40 41 42 43 44 45 46 47 48 49 50
000
ASUS43 KLOT 030400
RWRIL

ILLINOIS REGIONAL WEATHER ROUNDUP
NATIONAL WEATHER SERVICE CHICAGO/ROMEOVILLE IL
1100 PM CDT THU JUL 02 2015

NOTE: "FAIR" INDICATES FEW OR NO CLOUDS BELOW 12,000 FEET WITH NO
SIGNIFICANT WEATHER AND/OR OBSTRUCTIONS TO VISIBILITY.

* THESE STATIONS ARE NOT UNDER NWS QUALITY CONTROL. THEY ALSO MAY NOT
  REPORT WEATHER SUCH AS PRECIPITATION OR FOG.

ILZ001-002-007-009-015-016-024-030500-
NORTHWEST ILLINOIS

CITY           SKY/WX    TMP DP  RH WIND       PRES   REMARKS
MOLINE         CLOUDY    64  59  83 CALM      29.96S
STERLING*      MOCLDY    59  55  88 NE6       29.98S
$$

ILZ003-004-008-010-011-017-018-030500-
NORTH CENTRAL ILLINOIS

CITY           SKY/WX    TMP DP  RH WIND       PRES   REMARKS
ROCKFORD       CLOUDY    61  53  75 E5        30.00S
$$

ILZ005-006-012>014-019>023-030500-
NORTHEAST ILLINOIS

CITY           SKY/WX    TMP DP  RH WIND       PRES   REMARKS
CHICAGO-OHARE  CLOUDY    58  48  69 N5        30.00S
CHICAGO-MIDWAY CLOUDY    62  51  67 NE9       29.99F
AURORA         MOCLDY    59  50  72 NE10      29.99S
LANSING*       MOCLDY    59  54  81 N3        29.99S
WAUKEGAN       PTCLDY    54  48  80 N3        30.00S
DUPAGE AIRPORT MOCLDY    57  50  77 NE7       29.99S
WHEELING       MOCLDY    57  47  69 N3        30.02S
NORTHERLY ISL    N/A     59  50  72 N8          N/A
$$

LMZ740>746-030500-
SOUTHERN LAKE MICHIGAN

STATION/POSITION SKY/WX   TEMP    WIND        PRES    VSBY  WAVE
                          AIR SEA DIR/SP/G                  HT/PER
                          (F)     (DEG/KT/KT) (MB)    (MI)  (FT/S)
HARRISON CRIB              59      10/ 11/ 14   N/A
BURNHAM HARBOR             59      10/  7/  9   N/A
CALUMET HARBOR             59     350/  5/  6   N/A
BURNS HARBOR               63      60/ 13/ 16 1016.3R
MICHIGAN CITY              60      30/ 12/ 13   N/A
MICHIGAN CITY 6N           63 63   60/ 12/ 16   N/A           4/ 5
ST. JOSEPH                 59 62                N/A           3/ 5
$$

ILZ025>027-034>036-040-047-049-050-058-095>099-030500-
WEST-CENTRAL ILLINOIS

CITY           SKY/WX    TMP DP  RH WIND       PRES   REMARKS
QUINCY         CLOUDY    65  61  87 NE7       29.94R
MACOMB*        CLOUDY    64  60  89 NE6       29.97S
$$

ILZ028>032-037-038-041>044-048-051>054-059>061-030500-
CENTRAL ILLINOIS

CITY           SKY/WX    TMP DP  RH WIND       PRES   REMARKS
DECATUR        CLOUDY    66  61  84 NE10      29.92S
PEORIA         CLOUDY    70  57  63 NE6       29.95S
SPRINGFIELD    CLOUDY    69  62  78 N8        29.93R
TAYLORVILLE    NOT AVBL
$$

ILZ033-039-045-046-055>057-062-063-030500-
EAST-CENTRAL ILLINOIS

CITY           SKY/WX    TMP DP  RH WIND       PRES   REMARKS
CHAMPAIGN      CLOUDY    67  61  81 NE10      29.92S
MATTOON        CLOUDY    68  65  90 N7        29.89F
$$

ILZ079-100>102-030500-
SOUTHWEST ILLINOIS

CITY           SKY/WX    TMP DP  RH WIND       PRES   REMARKS
BELLEVILLE     PTCLDY    69  65  88 VRB3      29.90R
CAHOKIA*       PTCLDY    71  63  75 N6        29.91R
SPARTA*        CLOUDY    71  65  84 N7        29.91R
$$

ILZ064>066-069>071-074>076-080>082-084>086-088>090-092>094-030500-
SOUTH-CENTRAL ILLINOIS

CITY           SKY/WX    TMP DP  RH WIND       PRES   REMARKS
CARBONDALE     CLOUDY    72  70  93 CALM      29.88R
MT. VERNON     MOCLDY    70  63  78 N5        29.89S
SALEM*         MOCLDY    71  65  81 N6        29.89F
$$

ILZ067-068-072-073-078-083-087-091-030500-
SOUTHEAST ILLINOIS

CITY           SKY/WX    TMP DP  RH WIND       PRES   REMARKS
LAWRENCEVILLE  CLOUDY    71  69  93 NW5       29.87S
HARRISBURG*    CLOUDY    73  72  97 CALM      29.88S
$$

ABBREVIATIONS USED IN REMARKS
   TC - TEMPERATURE IN CELSIUS
  WCI - WIND CHILL INDEX
   HX - HEAT INDEX
  VSB - VISIBILITY
$$



USA.gov is the U.S. government's official web portal to all federal, state and local government web resources and services.